Regional Weather Roundup
Issued by NWS

Home | Current Version | Previous Version | Graphics & Text | Print | Product List | Glossary On
Versions: 1 2 3 4 5 6 7 8 9 10 11 12 13 14 15 16 17 18 19 20 21 22 23 24 25 26 27 28 29 30 31 32 33 34 35 36 37 38 39 40 41 42 43 44 45 46 47 48 49 50
000
ASUS45 KSLC 250510
RWRUT

UTAH REGIONAL WEATHER ROUNDUP
NATIONAL WEATHER SERVICE SALT LAKE CITY UT
1100 PM MDT FRI MAR 24 2017

UTZ001>011-023>025-250600-

NORTHERN UTAH

CITY           SKY/WX    TMP DP  RH WIND       PRES   REMARKS
BRIGHAM CITY     N/A     49  37  62 NW7       30.05R
HILL AFB       CLOUDY    49  33  55 SE8       30.04S
LOGAN          CLOUDY    49  39  68 E3        30.05R
OGDEN          CLOUDY    47  35  63 S7        30.03S
SALT LAKE CITY MOCLDY    52  37  56 E5        30.02S
WENDOVER       MOCLDY    54  35  48 NW5       30.03R
HEBER CITY     MOCLDY    37  28  70 CALM      30.08S

$$

UTZ011>015-024>027-250600-

CENTRAL/NORTHEAST UTAH

CITY           SKY/WX    TMP DP  RH WIND       PRES   REMARKS
PROVO AIRPORT  PTCLDY    47  36  65 SE3       30.07
MOAB/CANYONLAN PTCLDY    45  23  42 CALM      30.11R
DELTA          CLEAR     46  32  57 S10       30.06R
PRICE          PTCLDY    40  34  79 N8        30.14S WCI  34
ROOSEVELT      CLOUDY    43  37  81 CALM      30.15S
VERNAL         CLEAR     45  34  65 CALM      30.13R

$$

UTZ013>016-019>022-027-250600-

SOUTHERN UTAH

CITY           SKY/WX    TMP DP  RH WIND       PRES   REMARKS
BRYCE CANYON   CLEAR     32  24  72 W6        30.22S WCI  26
CEDAR CITY     PTCLDY    50  23  34 SW8G17    30.12R
MILFORD        PTCLDY    48  28  46 S14       30.10R
ST GEORGE      PTCLDY    55  36  48 SE7       30.09R
HANKSVILLE     CLEAR     46  28  49 SE3       30.13F
BLANDING       CLEAR     39  19  43 N3        30.25F

$$

REGIONAL REPORTS     COLORADO/ARIZONA

CITY           SKY/WX    TMP DP  RH WIND       PRES   REMARKS
CRAIG, CO      CLOUDY    33  24  69 E3        30.16R
GRAND JUNCTION CLOUDY    45  28  51 E7        30.13S
RIFLE, CO      CLOUDY    41  28  60 CALM      30.16R
MONTROSE, CO   CLOUDY    42  32  67 SE9       30.20R
CORTEZ, CO     CLOUDY    37  28  70 NE9       30.19S WCI  30
COLORADO CITY    N/A     43  36  75 S3        30.19S
PAGE, AZ       CLEAR     54  30  40 S5        30.12F
GRAND CANYON   CLEAR     33  30  88 CALM      30.25R
KINGMAN, AZ    PTCLDY    53  23  31 S10       30.16R
FLAGSTAFF, AZ  CLEAR     33  29  85 CALM      30.28R

$$

REGIONAL REPORTS    NEVADA/IDAHO/WYOMING

CITY           SKY/WX    TMP DP  RH WIND       PRES   REMARKS
LAS VEGAS, NV  MOCLDY    70  21  15 S9        30.01S
ELY, NY        CLOUDY    46  27  47 S12       30.08S
ELKO, NV       LGT RAIN  44  40  85 SW5       30.10R
POCATELLO, ID  CLOUDY    48  36  63 W17       30.07R
BURLEY, ID     LGT RAIN  45  42  89 W7        30.07R FOG
FORT BRIDGER,    N/A     42  32  69 CALM      30.12S
EVANSTON, WY   CLOUDY    42  28  57 S3        30.09R
ROCK SPRINGS,  CLOUDY    43  31  62 SE5       30.09F
KEMMERER, WY     N/A     34  25  69 NW8       30.11R WCI  27

$$



USA.gov is the U.S. government's official web portal to all federal, state and local government web resources and services.